Station SNDP5 - 1619910 - Sand Island, Midway Islands Image indicating link to RSS feed of recent meteorological observations for station SNDP5


Conditions at SNDP5 as of
1054 GMT on 04/21/2024:
     

Click on the graph icon in the table below to see a time series plot of the last five days of that observation.

5-day plot - Atmospheric Pressure Atmospheric Pressure (PRES):30.17 in
5-day plot - Air Temperature Air Temperature (ATMP): 70.0 °F
5-day plot - Water Temperature Water Temperature (WTMP): 70.3 °F
NOS Water Level Observation Network Water Level
Previous observations
TIME
(GMT)
5-day plot - Wind Direction
WDIR
 
5-day plot - Wind Speed
WSPD
kts
5-day plot - Wind Gust
GST
kts
5-day plot - Wave Height
WVHT
ft
5-day plot - Dominant Wave Period
DPD
sec
5-day plot - Average Wave Period
APD
sec
5-day plot - Mean Wave Direction
MWD
 
5-day plot - Atmospheric Pressure
PRES
in
5-day plot - Pressure Tendency
PTDY
in
5-day plot - Air Temperature
ATMP
°F
5-day plot - Water Temperature
WTMP
°F
5-day plot - Dew Point
DEWP
°F
5-day plot - Salinity
SAL
psu
5-day plot - Visibility
VIS
nmi
5-day plot - Tide (above MLLW)
TIDE
ft
2024-04-21 1048-------30.17- 70.2 70.3----
2024-04-21 1042-------30.17- 69.8 70.3----
2024-04-21 1036-------30.17- 70.0 70.3----
2024-04-21 1030-------30.17-- 70.3----
2024-04-21 1024-------30.17-- 70.3----
2024-04-21 1018-------30.17- 70.2 70.3----
2024-04-21 1012-------30.17- 70.2 70.3----
2024-04-21 1006-------30.17- 70.0 70.3----
2024-04-21 1000-------30.17+0.03 70.2 70.3----
2024-04-21 0954-------30.17- 70.0 70.3----
2024-04-21 0948-------30.17- 70.0 70.3----
2024-04-21 0942-------30.17- 70.2 70.3----
2024-04-21 0936-------30.17- 70.0 70.3----
2024-04-21 0930-------30.17- 70.0 70.2----
2024-04-21 0924-------30.17- 69.8 70.2----
2024-04-21 0918-------30.17- 70.3 70.2----
2024-04-21 0912-------30.17- 70.0 70.2----
2024-04-21 0906-------30.17- 70.0 70.2----
2024-04-21 0900-------30.17+0.04 70.0 70.2----
2024-04-21 0854-------30.17- 69.8 70.2----
2024-04-21 0848-------30.17- 70.0 70.2----
2024-04-21 0842-------30.16- 70.0 70.2----
2024-04-21 0836-------30.16- 70.2 70.2----
2024-04-21 0830-------30.16- 70.0 70.2----
2024-04-21 0824-------30.16- 70.0 70.2----
2024-04-21 0818-------30.16-- 70.2----
2024-04-21 0812-------30.16-- 70.3----
2024-04-21 0806-------30.16-- 70.3----
2024-04-21 0800--------- 70.2 70.3----
2024-04-21 0754--------- 70.2 70.3----
2024-04-21 0748-------30.15- 70.0 70.3----
2024-04-21 0742-------30.15- 70.0 70.3----
2024-04-21 0736-------30.15- 70.3 70.3----
2024-04-21 0730-------30.15- 70.2 70.3----
2024-04-21 0724-------30.15- 70.2 70.3----
2024-04-21 0718-------30.15- 70.2 70.3----
2024-04-21 0712-------30.15- 70.0 70.3----
2024-04-21 0706-------30.14- 70.3 70.3----
2024-04-21 0700-------30.14+0.03 70.3 70.3----
2024-04-21 0654-------30.14- 70.3 70.3----
2024-04-21 0648-------30.14- 70.3 70.3----
2024-04-21 0642-------30.14- 70.2 70.3----
2024-04-21 0636-------30.14- 70.3 70.3----
2024-04-21 0630-------30.14- 70.3 70.3----
2024-04-21 0624-------30.14- 70.3 70.3----
2024-04-21 0618-------30.14- 70.3 70.5----
2024-04-21 0612-------30.13- 70.3 70.5----
2024-04-21 0606-------30.13- 70.3 70.5----
2024-04-21 0600-------30.13+0.00 70.7 70.2----
2024-04-21 0554-------30.13- 70.7 70.3----
2024-04-21 0548-------30.13- 70.5 70.3----
2024-04-21 0542-------30.13- 70.7 70.2----
2024-04-21 0536-------30.13- 70.7 70.3----
2024-04-21 0530-------30.13- 70.9 70.3----
2024-04-21 0524-------30.12- 70.7 70.3----
2024-04-21 0518-------30.12- 70.9 70.5----
2024-04-21 0512-------30.12- 71.4 70.3----
2024-04-21 0506-------30.12- 71.2 70.3----
2024-04-21 0500-------30.12-0.02 71.4 70.3----
2024-04-21 0454-------30.12- 71.2 70.5----
2024-04-21 0448-------30.12- 71.4 70.5----
2024-04-21 0442-------30.12- 71.4 70.5----
2024-04-21 0436-------30.12- 71.4 70.5----
2024-04-21 0430-------30.12- 71.4 70.5----
2024-04-21 0424-------30.12- 71.6 70.5----
2024-04-21 0418-------30.12- 71.8 70.5----
2024-04-21 0412-------30.12- 71.8 70.5----
2024-04-21 0406-------30.11- 71.8 70.7----
2024-04-21 0400-------30.11-0.04 72.0 70.7----
2024-04-21 0354-------30.11- 71.8 70.7----
2024-04-21 0348-------30.11- 72.0 70.7----
2024-04-21 0342-------30.11- 72.1 70.7----
2024-04-21 0336-------30.12- 72.0 70.7----
2024-04-21 0330-------30.12- 72.1 70.7----
2024-04-21 0324-------30.12- 72.3 70.7----
2024-04-21 0318-------30.12- 72.1 70.7----
2024-04-21 0312-------30.13- 72.0 70.7----
2024-04-21 0306-------30.13- 72.5 70.7----
2024-04-21 0300-------30.13-0.04 72.1 70.2----
2024-04-21 0254-------30.13- 72.5 70.3----
2024-04-21 0248-------30.13- 72.5 70.3----
2024-04-21 0242-------30.13- 72.3 70.2----
2024-04-21 0236-------30.13- 72.5 70.2----
2024-04-21 0230-------30.14- 72.3 70.2----
2024-04-21 0224-------30.14- 72.3 70.2----
2024-04-21 0218-------30.14- 72.1 70.2----
2024-04-21 0212-------30.14- 72.1 70.2----
2024-04-21 0206-------30.14- 72.7 70.2----
2024-04-21 0200-------30.14-0.04 72.1 70.2----
2024-04-21 0154-------30.14- 71.6 70.2----
2024-04-21 0148-------30.14- 71.6 70.2----
2024-04-21 0142-------30.14- 71.8 70.2----
2024-04-21 0136-------30.14- 72.3 70.2----
2024-04-21 0130-------30.14- 72.0 70.2----
2024-04-21 0124-------30.14- 72.0 70.2----
2024-04-21 0118-------30.15- 72.1 70.2----
2024-04-21 0112-------30.15- 72.3 70.0----
2024-04-21 0106-------30.15- 72.3 70.0----
2024-04-21 0100-------30.15-0.03 72.5 70.2----
2024-04-21 0054-------30.16- 72.3 70.2----
2024-04-21 0048-------30.16- 72.3 70.2----
2024-04-21 0042-------30.16- 72.1 70.0----
2024-04-21 0036-------30.16- 72.1 70.0----
2024-04-21 0030-------30.16- 72.0 70.2----
2024-04-21 0024-------30.16- 71.8 70.2----
2024-04-21 0018--------- 72.3 70.2----
2024-04-21 0012--------- 71.8 70.2----
2024-04-21 0006--------- 72.0 70.2----
2024-04-21 0000-------30.16-0.02 72.0 70.2----
2024-04-20 2354-------30.17- 72.5 70.2----
2024-04-20 2348-------30.17-- 70.2----
2024-04-20 2342-------30.17-- 70.2----
2024-04-20 2336-------30.17-- 70.2----
2024-04-20 2330-------30.17- 71.6 70.2----
2024-04-20 2324-------30.17- 71.6 70.2----
2024-04-20 2318-------30.17-- 70.2----
2024-04-20 2312-------30.17-- 70.0----
2024-04-20 2306-------30.18-- 70.0----
2024-04-20 2300-------30.18-0.01 72.1 70.2----
2024-04-20 2254-------30.18- 72.0 70.0----
2024-04-20 2248-------30.18- 71.6 69.8----
2024-04-20 2242-------30.19- 71.4 69.6----
2024-04-20 2236-------30.19- 71.4 69.6----
2024-04-20 2230-------30.19- 72.3 69.6----
2024-04-20 2224-------30.18- 72.5 69.6----
2024-04-20 2218-------30.18- 72.7 69.6----
2024-04-20 2212-------30.18- 72.0 69.6----
2024-04-20 2206-------30.19- 72.3 69.6----
2024-04-20 2200-------30.19+0.01 72.1 69.6----
2024-04-20 2154-------30.19- 72.5 69.6----
2024-04-20 2148-------30.19- 72.5 69.6----
2024-04-20 2142-------30.19- 72.0 69.6----
2024-04-20 2136-------30.19- 71.8 69.6----
2024-04-20 2130-------30.19- 71.6 69.6----
2024-04-20 2124-------30.19- 71.8 69.6----
2024-04-20 2118-------30.19- 71.4 69.6----
2024-04-20 2112-------30.19- 71.2 69.6----
2024-04-20 2106-------30.19- 71.4 69.6----
2024-04-20 2100-------30.19+0.03 71.4 69.6----
2024-04-20 2054-------30.19- 71.4 69.6----
2024-04-20 2048-------30.19-- 69.6----
2024-04-20 2042-------30.19-- 69.6----
2024-04-20 2036-------30.19-- 69.6----
2024-04-20 2030-------30.19- 71.6 69.6----
2024-04-20 2024-------30.19- 71.2 69.4----
2024-04-20 2018--------- 71.2 69.4----
2024-04-20 2012--------- 71.2 69.4----
2024-04-20 2006--------- 70.9 69.4----
2024-04-20 2000-------30.19+0.04 70.9 69.4----
2024-04-20 1954-------30.18- 71.1 69.3----
2024-04-20 1948-------30.18- 70.9 69.3----
2024-04-20 1942-------30.18- 70.9 69.3----
2024-04-20 1936-------30.18- 71.1 69.3----
2024-04-20 1930-------30.18- 70.7 69.3----
2024-04-20 1924-------30.18- 71.1 69.3----
2024-04-20 1918-------30.18- 70.3 69.3----
2024-04-20 1912-------30.18- 70.5 69.3----
2024-04-20 1906-------30.18- 70.5 69.3----
2024-04-20 1900-------30.18+0.03------
2024-04-20 1854-------30.17-------
2024-04-20 1848-------30.17- 70.2 69.1----
2024-04-20 1842-------30.17- 69.8 69.1----
2024-04-20 1836-------30.17- 69.8 69.1----
2024-04-20 1830--------- 69.8 69.1----
2024-04-20 1824--------- 69.4 69.1----
2024-04-20 1818-------30.16- 69.4 69.1----
2024-04-20 1812-------30.16- 69.1 69.1----
2024-04-20 1806-------30.16- 69.1 69.1----
2024-04-20 1800-------30.16+0.00 68.9 69.3----
2024-04-20 1754-------30.16- 68.9 69.1----
2024-04-20 1748-------30.16- 68.5 69.1----
2024-04-20 1742-------30.15- 68.4 69.1----
2024-04-20 1736-------30.15- 68.5 69.1----
2024-04-20 1730-------30.15- 68.2 69.1----
2024-04-20 1724-------30.15- 68.4 69.1----
2024-04-20 1718-------30.15- 68.4 69.1----
2024-04-20 1712-------30.15- 68.4 69.1----
2024-04-20 1706-------30.15- 68.2 69.1----
2024-04-20 1700-------30.14-0.02 68.4 69.1----
2024-04-20 1654-------30.14- 68.2 69.1----
2024-04-20 1648-------30.14- 68.4 69.1----
2024-04-20 1642-------30.14- 68.0 69.1----
2024-04-20 1636-------30.15- 68.2 69.1----
2024-04-20 1630-------30.15- 68.0 69.1----
2024-04-20 1624-------30.15- 68.2 69.1----
2024-04-20 1618-------30.15- 68.2 69.1----
2024-04-20 1612-------30.15- 68.2 69.1----
2024-04-20 1606-------30.15- 68.2 69.1----
2024-04-20 1600-------30.15-0.04 68.2 69.1----
2024-04-20 1554-------30.15- 68.0 69.1----
2024-04-20 1548-------30.15- 68.2 69.1----
2024-04-20 1542-------30.15- 68.0 69.1----
2024-04-20 1536-------30.15- 67.8 69.1----
2024-04-20 1530-------30.15- 68.0 69.1----
2024-04-20 1524-------30.15- 68.2 69.1----
2024-04-20 1518-------30.15- 68.2 69.1----
2024-04-20 1512-------30.15- 68.0 69.1----
2024-04-20 1506-------30.15- 68.2 69.1----
2024-04-20 1500-------30.15-0.05 68.0 69.1----
2024-04-20 1454-------30.15- 68.2 69.1----
2024-04-20 1448-------30.15- 68.0 69.1----
2024-04-20 1442-------30.15- 68.2 69.1----
2024-04-20 1436-------30.15- 68.0 69.3----
2024-04-20 1430-------30.16- 68.2 69.3----
2024-04-20 1424-------30.16- 68.2 69.3----
2024-04-20 1418-------30.16- 68.0 69.3----
2024-04-20 1412-------30.16- 67.8 69.3----
2024-04-20 1406-------30.16- 68.2 69.3----
2024-04-20 1400-------30.17-0.05 68.0 69.3----
2024-04-20 1354-------30.17- 67.8 69.3----
2024-04-20 1348-------30.17-- 69.3----
2024-04-20 1342-------30.17-- 69.3----
2024-04-20 1336-------30.18-- 69.3----
2024-04-20 1330-------30.18- 68.0 69.3----
2024-04-20 1324-------30.18- 67.8 69.3----
2024-04-20 1318-------30.18- 68.0 69.3----
2024-04-20 1312-------30.18- 67.8 69.3----
2024-04-20 1306-------30.18- 67.8 69.3----
2024-04-20 1300-------30.19-0.04 68.0 69.3----
2024-04-20 1254-------30.19- 67.6 69.3----
2024-04-20 1248-------30.19- 67.8 69.3----
2024-04-20 1242-------30.19- 68.0 69.3----
2024-04-20 1236-------30.19- 68.0 69.3----
2024-04-20 1230-------30.19- 68.0 69.3----
2024-04-20 1224-------30.19- 68.2 69.3----
2024-04-20 1218-------30.19- 68.0 69.3----
2024-04-20 1212-------30.19- 68.2 69.3----
2024-04-20 1206-------30.19- 68.2 69.3----
2024-04-20 1200-------30.20-0.03 68.0 69.3----
2024-04-20 1154-------30.20- 68.2 69.3----
2024-04-20 1148-------30.20- 68.2 69.3----
2024-04-20 1142-------30.20- 68.0 69.3----
2024-04-20 1136-------30.21- 68.2 69.3----
2024-04-20 1130-------30.21- 68.0 69.3----
2024-04-20 1124-------30.21- 68.2 69.3----
2024-04-20 1118-------30.21- 68.0 69.3----
2024-04-20 1112-------30.21- 68.0 69.3----
2024-04-20 1106-------30.22- 68.0 69.3----
2024-04-20 1100-------30.22+0.00 68.2 69.3----
2024-04-20 1054-------30.22- 68.4 69.3----